User: anonymous
Location: Unspecified
(0.0000°N, 0.0000°E)
Time: 18:18:57
(UTC+00:00)
Language:

AUBIESAT-1 - Orbit

View from above orbital plane
View from above orbital plane
View from above satellite
View from above satellite

Ground track
Ground track

The orbit data is extracted from the following two-line orbital elements,

1 37854U 11061E   14273.54186262  .00011049  00000-0  71297-3 0  9216
2 37854 101.7085 355.7286 0210081 108.3490 014.6211 14.92180482158417
Epoch (UTC): 30 September 2014 13:00:16
Eccentricity: 0.0210081
inclination: 101.7085°
perigee height: 445 km
apogee height: 737 km
right ascension of ascending node: 355.7286°
argument of perigee: 108.3490°
revolutions per day: 14.92180482
mean anomaly at epoch: 14.6211°
orbit number at epoch: 15841

The dashed part of the orbit path shows where the satellite is in the earth's shadow,  

DLR